TimeCST,TemperatureF,Dew PointF,Humidity,Sea Level PressureIn,VisibilityMPH,Wind Direction,Wind SpeedMPH,Gust SpeedMPH,PrecipitationIn,Events,Conditions,WindDirDegrees,DateUTC
12:53 AM,32.0,28.9,88,29.97,10.0,Calm,Calm,-,N/A,,Clear,0,2013-02-05 06:53:00
1:53 AM,28.9,27.0,92,29.94,8.0,ESE,3.5,-,N/A,,Clear,110,2013-02-05 07:53:00
2:53 AM,28.9,27.0,92,29.94,6.0,Calm,Calm,-,N/A,,Clear,0,2013-02-05 08:53:00
3:53 AM,26.1,25.0,96,29.96,2.0,Calm,Calm,-,N/A,,Clear,0,2013-02-05 09:53:00
4:08 AM,26.6,26.6,100,29.95,4.0,Calm,Calm,-,N/A,,Clear,0,2013-02-05 10:08:00
4:53 AM,28.0,26.1,92,29.95,6.0,East,3.5,-,N/A,,Clear,100,2013-02-05 10:53:00
5:53 AM,27.0,26.1,96,29.96,6.0,Calm,Calm,-,N/A,,Clear,0,2013-02-05 11:53:00
6:53 AM,28.0,27.0,96,29.96,8.0,Calm,Calm,-,N/A,,Clear,0,2013-02-05 12:53:00
7:53 AM,30.0,28.0,92,29.99,10.0,Calm,Calm,-,N/A,,Clear,0,2013-02-05 13:53:00
8:53 AM,37.0,33.1,86,30.01,9.0,Calm,Calm,-,N/A,,Clear,0,2013-02-05 14:53:00
9:53 AM,50.0,37.0,61,30.01,10.0,SW,9.2,-,N/A,,Clear,220,2013-02-05 15:53:00
10:53 AM,55.0,36.0,49,30.02,10.0,WSW,9.2,-,N/A,,Clear,250,2013-02-05 16:53:00
11:53 AM,55.9,34.0,44,30.02,10.0,West,15.0,-,N/A,,Clear,260,2013-02-05 17:53:00
12:53 PM,59.0,33.1,38,30.01,10.0,West,12.7,19.6,N/A,,Clear,280,2013-02-05 18:53:00
1:53 PM,59.0,33.1,38,30.00,10.0,WNW,11.5,-,N/A,,Clear,290,2013-02-05 19:53:00
2:53 PM,60.1,33.1,36,30.01,10.0,NNW,10.4,-,N/A,,Clear,330,2013-02-05 20:53:00
3:53 PM,59.0,32.0,36,30.00,10.0,North,-9999.0,-,N/A,,Clear,0,2013-02-05 21:53:00
4:53 PM,57.9,32.0,37,30.01,10.0,Calm,Calm,-,N/A,,Clear,0,2013-02-05 22:53:00
5:53 PM,53.1,32.0,45,30.02,10.0,Calm,Calm,-,N/A,,Clear,0,2013-02-05 23:53:00
6:53 PM,50.0,33.1,52,30.04,10.0,Calm,Calm,-,N/A,,Clear,0,2013-02-06 00:53:00
7:53 PM,44.1,33.1,65,30.06,10.0,Calm,Calm,-,N/A,,Clear,0,2013-02-06 01:53:00
8:53 PM,41.0,32.0,70,30.08,10.0,Calm,Calm,-,N/A,,Clear,0,2013-02-06 02:53:00
9:53 PM,37.0,30.9,79,30.08,10.0,NE,3.5,-,N/A,,Clear,50,2013-02-06 03:53:00
10:53 PM,39.9,30.9,70,30.08,10.0,ENE,5.8,-,N/A,,Clear,70,2013-02-06 04:53:00
11:53 PM,41.0,30.0,65,30.08,10.0,East,4.6,-,N/A,,Clear,90,2013-02-06 05:53:00